AUA2PM EDDS-LJLJ

Flight info

Callsign AUA2PM
Flight time N/A
Altitude 33000
Route KUNOD2H KUNOD DCT MOMUK DCT TUNUM Z204 GEDSO DCT VEKEN
Aircraft A320/M-SDE3FGHIRWY/LB1

Departure

Time 2026-04-30 22:27
Airport Stuttgart Airport (EDDS)

Arrival

Time N/A
Airport Ljubljana Jože Pučnik Airport (LJLJ)
Time Latitude Longitude Altitude Speed Heading
2026-04-30 21:51 48.68917 9.19512 1308 ft 0 kts 344°
2026-04-30 22:13 48.68916 9.19512 1308 ft 1 kts 344°
2026-04-30 22:13 48.68902 9.19519 1307 ft 2 kts 344°
2026-04-30 22:14 48.68887 9.19524 1307 ft 2 kts 358°
2026-04-30 22:14 48.68872 9.19523 1307 ft 2 kts 10°
2026-04-30 22:14 48.68858 9.19517 1307 ft 2 kts 22°
2026-04-30 22:14 48.68845 9.19506 1307 ft 2 kts 36°
2026-04-30 22:15 48.68834 9.19491 1308 ft 2 kts 49°
2026-04-30 22:15 48.68825 9.19473 1308 ft 2 kts 62°
2026-04-30 22:15 48.68821 9.19458 1309 ft 0 kts 72°
2026-04-30 22:15 48.68819 9.19449 1309 ft 0 kts 74°
2026-04-30 22:17 48.68834 9.19523 1307 ft 8 kts 73°
2026-04-30 22:17 48.68847 9.19590 1304 ft 7 kts 74°
2026-04-30 22:17 48.68890 9.19819 1298 ft 12 kts 83°
2026-04-30 22:18 48.68829 9.19907 1294 ft 14 kts 149°
2026-04-30 22:18 48.68730 9.19967 1292 ft 0 kts 163°
2026-04-30 22:21 48.68729 9.19968 1292 ft 0 kts 163°
2026-04-30 22:21 48.68715 9.19974 1291 ft 3 kts 163°
2026-04-30 22:21 48.68683 9.19988 1291 ft 5 kts 163°
2026-04-30 22:21 48.68679 9.19990 1291 ft 0 kts 163°
2026-04-30 22:26 48.68648 9.20005 1290 ft 6 kts 156°
2026-04-30 22:26 48.68604 9.20073 1288 ft 12 kts 114°
2026-04-30 22:26 48.68607 9.20190 1285 ft 8 kts 70°
2026-04-30 22:27 48.68683 9.20588 1275 ft 76 kts 74°
2026-04-30 22:27 48.68891 9.21685 1242 ft 139 kts 73°
2026-04-30 22:27 48.69501 9.24902 2179 ft 163 kts 78°
2026-04-30 22:28 48.70073 9.28065 3612 ft 161 kts 78°
2026-04-30 22:28 48.70390 9.29786 3940 ft 177 kts 78°
2026-04-30 22:29 48.71540 9.35849 5495 ft 212 kts 75°
2026-04-30 22:29 48.71907 9.38057 6111 ft 220 kts 86°
2026-04-30 22:30 48.66697 9.44125 8349 ft 275 kts 152°
2026-04-30 22:31 48.61360 9.47721 10590 ft 288 kts 152°
2026-04-30 22:32 48.55473 9.51734 12065 ft 326 kts 152°
2026-04-30 22:32 48.51298 9.54567 13439 ft 334 kts 152°
2026-04-30 22:33 48.44856 9.59000 15329 ft 344 kts 145°
2026-04-30 22:33 48.41535 9.64077 16552 ft 342 kts 124°
2026-04-30 22:34 48.36962 9.72553 18287 ft 353 kts 125°
2026-04-30 22:35 48.33758 9.78223 19401 ft 359 kts 126°
2026-04-30 22:36 48.27336 9.89870 21560 ft 364 kts 119°
2026-04-30 22:36 48.25905 9.93050 22084 ft 366 kts 118°
2026-04-30 22:37 48.21572 10.02624 23577 ft 374 kts 119°
2026-04-30 22:37 48.20102 10.05823 24049 ft 376 kts 118°
2026-04-30 22:37 48.17104 10.12306 24989 ft 380 kts 118°
2026-04-30 22:38 48.14066 10.18851 25816 ft 386 kts 118°
2026-04-30 22:38 48.10981 10.25468 26640 ft 390 kts 118°
2026-04-30 22:39 48.09419 10.28807 27037 ft 393 kts 118°
2026-04-30 22:39 48.04649 10.38992 28174 ft 399 kts 117°
2026-04-30 22:40 47.99836 10.49221 29229 ft 405 kts 117°
2026-04-30 22:41 47.94896 10.59691 30161 ft 412 kts 117°
2026-04-30 22:41 47.91573 10.66706 30772 ft 415 kts 117°
2026-04-30 22:42 47.84878 10.80792 31803 ft 422 kts 117°
2026-04-30 22:43 47.81451 10.87968 32256 ft 427 kts 117°
2026-04-30 22:43 47.77969 10.95248 32731 ft 429 kts 117°
2026-04-30 22:44 47.74500 11.02479 33124 ft 432 kts 117°
2026-04-30 22:45 47.67459 11.17083 33314 ft 433 kts 117°
2026-04-30 22:45 47.63925 11.24391 33320 ft 433 kts 117°
2026-04-30 22:47 47.53347 11.46147 33336 ft 433 kts 116°
2026-04-30 22:48 47.46265 11.60610 33335 ft 432 kts 116°
2026-04-30 22:49 47.35680 11.82098 33330 ft 434 kts 117°
2026-04-30 22:51 47.24942 12.03723 33287 ft 432 kts 116°
2026-04-30 22:52 47.19612 12.14392 33292 ft 432 kts 116°
2026-04-30 22:53 47.12431 12.28711 33307 ft 435 kts 116°
2026-04-30 22:53 47.07054 12.39370 33300 ft 432 kts 116°
2026-04-30 22:55 46.98055 12.57137 33329 ft 432 kts 116°
2026-04-30 22:56 46.90819 12.71346 33274 ft 435 kts 117°
2026-04-30 22:56 46.85503 12.81707 32220 ft 426 kts 116°
2026-04-30 22:57 46.81956 12.88607 31238 ft 417 kts 116°
2026-04-30 22:57 46.78511 12.95299 30226 ft 409 kts 116°
2026-04-30 22:58 46.75102 13.01919 29121 ft 402 kts 116°
2026-04-30 22:59 46.70098 13.11596 27397 ft 395 kts 117°
2026-04-30 22:59 46.65194 13.21040 25749 ft 386 kts 118°